DW5244 Weather Reports


Display with metric or nautical units.
time (UTC)temp
F
wind
direction
speed
MPH
gust
MPH
rain 1hr
in
rain 24hr
in
rain mn
in
humidity
%
barometer
mb
20260906000055 78 18 8.0 10.0 0.00 0.08 0.08 58 1012.9
20260905234550 79 32 7.0 12.0 0.00 0.08 0.08 57 1012.6
20260905233047 79 355 10.0 13.0 0.00 0.08 0.08 58 1012.6
20260905231545 78 355 12.0 16.0 0.00 0.08 0.08 61 1012.7
20260905230045 77 355 12.0 20.0 0.00 0.08 0.08 62 1013.1
20260905224543 79 331 17.0 26.0 0.00 0.08 0.08 57 1013.4
20260905223042 79 360 11.0 18.0 0.00 0.08 0.08 56 1013.3
20260905221541 79 360 15.0 27.0 0.00 0.08 0.08 56 1013.4
20260905220041 80 66 16.0 30.0 0.00 0.08 0.08 52 1012.6
20260905214542 78 48 22.0 34.0 0.00 0.08 0.08 57 1012.6
20260905213045 80 49 26.0 40.0 0.00 0.08 0.08 56 1013.0
20260905211559 89 39 3.0 9.0 0.02 0.08 0.08 45 1012.7
20260905210051 86 355 4.0 9.0 0.05 0.08 0.08 58 1012.5
20260905204539 79 360 7.0 12.0 0.08 0.08 0.08 73 1012.8
20260905203034 75 49 5.0 9.0 0.08 0.08 0.08 91 1013.4
20260905201534 72 248 4.0 18.0 0.06 0.06 0.06 84 1013.9
20260905200032 75 5 14.0 26.0 0.03 0.03 0.03 77 1014.4
20260905194524 83 360 15.0 24.0 0.00 0.00 0.00 61 1014.0
20260905193024 89 360 13.0 19.0 0.00 0.00 0.00 44 1013.8
20260905191521 93 290 6.0 13.0 0.00 0.00 0.00 36 1013.9
20260905190020 95 302 5.0 9.0 0.00 0.00 0.00 34 1014.3
20260905184516 95 313 7.0 12.0 0.00 0.00 0.00 35 1014.5
20260905183020 93 281 5.0 11.0 0.00 0.00 0.00 35 1014.9
20260905181511 91 360 5.0 13.0 0.00 0.00 0.00 39 1015.3
20260905180008 92 261 5.0 13.0 0.00 0.00 0.00 38 1015.3
20260905174504 94 236 3.0 10.0 0.00 0.00 0.00 38 1015.5
20260905173105 91 259 1.0 6.0 0.00 0.00 0.00 42 1015.6
20260905171557 90 275 8.0 15.0 0.00 0.00 0.00 42 1015.8
20260905170054 89 360 3.0 12.0 0.00 0.00 0.00 43 1015.8
20260905164549 89 159 3.0 6.0 0.00 0.00 0.00 44 1016.0
20260905163045 87 259 3.0 11.0 0.00 0.00 0.00 46 1016.1
20260905161540 87 360 5.0 9.0 0.00 0.00 0.00 45 1016.2
20260905160037 86 225 4.0 9.0 0.00 0.00 0.00 47 1016.3
20260905154535 85 198 6.0 10.0 0.00 0.00 0.00 48 1016.2
20260905153027 85 175 2.0 5.0 0.00 0.00 0.00 50 1016.2
20260905151523 84 200 1.0 6.0 0.00 0.00 0.00 52 1016.2
20260905150020 83 273 1.0 6.0 0.00 0.00 0.00 52 1016.3
20260905144514 82 324 0.0 5.0 0.00 0.00 0.00 53 1016.3
20260905143010 81 319 3.0 5.0 0.00 0.00 0.00 57 1016.3
20260905141520 80 360 5.0 9.0 0.00 0.00 0.00 59 1016.1
20260905140000 78 346 2.0 5.0 0.00 0.00 0.00 67 1016.1
20260905134600 77 360 2.0 5.0 0.00 0.00 0.00 67 1016.0
20260905133056 75 360 2.0 6.0 0.00 0.00 0.00 71 1015.9
20260905131550 74 321 4.0 8.0 0.00 0.00 0.00 71 1015.8
20260905130044 74 313 3.0 6.0 0.00 0.00 0.00 71 1015.6
20260905124542 74 360 4.0 8.0 0.00 0.00 0.00 70 1015.5
20260905123037 74 360 5.0 8.0 0.00 0.00 0.00 69 1015.4
20260905121534 75 360 4.0 9.0 0.00 0.00 0.00 67 1015.4
20260905120033 75 360 3.0 8.0 0.00 0.00 0.00 67 1015.2
20260905114532 76 360 5.0 8.0 0.00 0.00 0.00 66 1015.2
20260905113030 76 360 4.0 8.0 0.00 0.00 0.00 66 1015.2
20260905111529 77 360 5.0 8.0 0.00 0.00 0.00 64 1015.2
20260905110026 77 360 4.0 6.0 0.00 0.00 0.00 64 1015.3
20260905104526 77 360 6.0 9.0 0.00 0.00 0.00 64 1015.3
20260905103024 77 360 7.0 12.0 0.00 0.00 0.00 64 1015.2
20260905101527 77 360 7.0 14.0 0.00 0.00 0.00 63 1015.2
20260905100023 77 360 6.0 11.0 0.00 0.00 0.00 64 1015.1
20260905094524 77 360 9.0 13.0 0.00 0.00 0.00 63 1015.2
20260905093020 77 360 6.0 11.0 0.00 0.00 0.00 61 1015.0
20260905091621 78 360 8.0 11.0 0.00 0.00 0.00 60 1015.0
20260905090017 78 360 5.0 12.0 0.00 0.00 0.00 59 1014.9
20260905084515 78 360 10.0 13.0 0.00 0.00 0.00 59 1015.1
20260905083019 79 360 8.0 14.0 0.00 0.00 0.00 57 1015.1
20260905081514 78 360 10.0 12.0 0.00 0.00 0.00 58 1014.9
20260905080012 79 360 10.0 13.0 0.00 0.00 0.00 58 1014.7
20260905074516 79 360 9.0 12.0 0.00 0.00 0.00 58 1015.1
20260905073010 79 360 9.0 12.0 0.00 0.00 0.00 57 1015.2
20260905071516 79 360 10.0 13.0 0.00 0.00 0.00 57 1015.0
20260905070008 79 360 8.0 12.0 0.00 0.00 0.00 56 1015.0
20260905064505 79 360 7.0 12.0 0.00 0.00 0.00 56 1015.1
20260905063003 79 169 6.0 9.0 0.00 0.00 0.00 56 1015.2
20260905061501 80 360 5.0 8.0 0.00 0.00 0.00 55 1015.0
20260905060100 80 360 4.0 14.0 0.00 0.00 0.00 54 1015.2
20260905054558 80 360 6.0 10.0 0.00 0.00 0.00 54 1015.0
20260905053054 80 360 3.0 9.0 0.00 0.00 0.00 54 1014.9
20260905051553 80 360 5.0 8.0 0.00 0.00 0.00 54 1014.7
20260905050050 81 360 2.0 6.0 0.00 0.00 0.00 52 1014.7
20260905044549 81 360 3.0 9.0 0.00 0.00 0.00 53 1014.8
20260905043049 82 360 4.0 18.0 0.00 0.00 0.00 50 1014.8
20260905041552 83 360 9.0 17.0 0.00 0.00 0.00 49 1015.0
20260905040054 83 360 10.0 17.0 0.00 0.00 0.00 47 1014.9
20260905034547 83 360 6.0 12.0 0.00 0.00 0.00 44 1015.0
20260905033047 83 360 12.0 14.0 0.00 0.00 0.00 47 1014.9
20260905031548 83 360 12.0 15.0 0.00 0.00 0.00 46 1014.7
20260905030048 82 360 9.0 12.0 0.00 0.00 0.00 47 1014.6
20260905024548 83 360 8.0 12.0 0.00 0.00 0.00 47 1014.5
20260905023047 82 360 10.0 12.0 0.00 0.00 0.00 47 1014.2
20260905021544 82 360 8.0 10.0 0.00 0.00 0.00 49 1013.6
20260905020044 82 360 5.0 8.0 0.00 0.00 0.00 49 1013.4
20260905014543 82 360 9.0 12.0 0.00 0.00 0.00 48 1013.2
20260905013043 82 360 7.0 11.0 0.00 0.00 0.00 48 1013.0
20260905011544 82 360 6.0 10.0 0.00 0.00 0.00 48 1012.8
20260905010045 82 360 11.0 15.0 0.00 0.00 0.00 48 1012.8
20260905004547 82 360 13.0 18.0 0.00 0.00 0.00 47 1012.7
20260905003046 83 360 15.0 19.0 0.00 0.00 0.00 47 1012.7
20260905001540 83 360 12.0 18.0 0.00 0.00 0.00 47 1012.6